Regional Weather Roundup
Issued by NWS Mt. Holly, NJ

Home | Current Version | Previous Version | Text Only | Print | Product List | Glossary On
Versions: 1 2 3 4 5 6 7 8 9 10 11 12 13 14 15 16 17 18 19 20 21 22 23 24 25 26 27 28 29 30 31 32 33 34 35 36 37 38 39 40 41 42 43 44 45 46 47 48 49 50
000
ASUS41 KPHI 281912
RWRPHI

REGIONAL WEATHER ROUNDUP
NATIONAL WEATHER SERVICE MOUNT HOLLY NJ
300 PM EDT SAT MAR 28 2015

NOTE:  "FAIR" INDICATES FEW OR NO CLOUDS BELOW 12,000 FEET WITH NO
SIGNIFICANT WEATHER AND/OR OBSTRUCTIONS TO VISIBILITY.

 * = STATION DOES NOT REPORT PRECIPITATION (E.G. RAIN, SNOW, ETC.)
        OR FOG.

NJZ015>026-282000-
SOUTHERN NEW JERSEY

CITY           SKY/WX    TMP DP  RH WIND       PRES   REMARKS
POMONA         CLOUDY    40  18  41 NW16      29.86R WCI  31
RIO GRANDE*    CLOUDY   N/A N/A N/A W18       29.91S
MILLVILLE      CLOUDY    38  22  52 W17       29.89S WCI  28
WRIGHTSTOWN    CLOUDY    41  18  39 NW12G23   29.84R
MOUNT HOLLY    CLOUDY    38  16  40 NW13G24   29.88R WCI  30
TRENTON        CLOUDY    39  14  36 N13G22    29.85F WCI  31

$$
NJZ001>014-282000-
NORTHERN NEW JERSEY

CITY           SKY/WX    TMP DP  RH WIND       PRES   REMARKS
SUSSEX         PTSUNNY   36  16  44 NW10G22   29.86S WCI  28
ANDOVER*         N/A     35  14  42 N9G20     29.86S WCI  28
MORRISTOWN     PTSUNNY   41  18  38 N14G23    29.86R
NEWARK         PTSUNNY   42  17  36 N12G23    29.84S
TETERBORO      CLOUDY    39  19  44 N14G22    29.83F WCI  31
CALDWELL       CLOUDY    40  17  39 N8        29.85S WCI  34
SOMERVILLE     PTSUNNY   40  13  33 N12G24    29.85R WCI  33
ALLAIRE*       CLOUDY    43  18  36 NW20      29.82S
TOMS RIVER*    CLOUDY    41  18  38 W16G22    29.84S

$$
PAZ043-044-047-054-055-060>062-066>071-282000-
EASTERN PENNSYLVANIA

CITY           SKY/WX    TMP DP  RH WIND       PRES   REMARKS
PHILADELPHIA   CLOUDY    39  14  36 N23       29.91R WCI  28
NORTH PHILA    CLOUDY    40  15  36 NW14      29.90R WCI  32
BLUE BELL      MOSUNNY   37  19  48 NW9G17    29.88S WCI  31
DOYLESTOWN     PTSUNNY   37  15  40 NW15G21   29.87S WCI  28
QUAKERTOWN*    PTSUNNY   36  14  41 NW10G23   29.89S WCI  28
POTTSTOWN      CLOUDY    35  14  42 NW14G24   29.91F WCI  26
LANCASTER      CLOUDY    33  13  43 NW18      29.95R WCI  22
COATESVILLE    PTSUNNY   34  16  47 NW17G28   29.91S WCI  23
READING        PTSUNNY   37  13  37 NW20G29   29.92S WCI  27
ALLENTOWN      MOSUNNY   37  14  38 NW18G26   29.90S WCI  27
MOUNT POCONO   PTSUNNY   26  12  55 NW18G28   29.81S WCI  13
HAZLETON       CLOUDY    28  10  47 W14G21    29.90S WCI  17
WILKES BARRE   CLOUDY    27  10  49 NW15G23   29.93R WCI  15

$$
DEZALL-MDZ008-012-015-019-020-282000-
DELAWARE AND EASTERN MARYLAND

CITY           SKY/WX    TMP DP  RH WIND       PRES   REMARKS
WILMINGTON     CLOUDY    38  17  42 NW23G29   29.93S WCI  27
DOVER          LGT RAIN  36  23  60 W20G29    29.93R WCI  25
GEORGETOWN     CLOUDY    34  21  59 W13G25    29.95F WCI  25
EASTON         MOSUNNY   36  19  51 N17G35    30.02R WCI  25
PATUXENT       PTSUNNY   37   9  31 NW15G28   30.00S WCI  28
OCEAN CITY     PTSUNNY   37  19  48 NW16G25   29.94R WCI  28
WALLOPS ISLAND SUNNY     39  11  31 NW17G28   29.97S WCI  30
CAMBRIDGE      MOSUNNY   36  18  48 NW13G24   29.98F WCI  27
SALISBURY      CLOUDY    35  17  47 W15G23    29.96R WCI  25

$$
PAZ001-021-NYZ056-072-MDZ011-DCZ001-282000-
OTHER NEARBY LOCATIONS

CITY           SKY/WX    TMP DP  RH WIND       PRES   REMARKS
HARRISBURG     PTSUNNY   35  14  42 NW16G25   29.98S WCI  25
STATE COLLEGE  LGT SNOW  27   9  46 NW13      29.99S WCI  16
WILLIAMSPORT   CLOUDY    31   7  36 NW13      29.99F WCI  21
BINGHAMTON     CLOUDY    20   7  57 NW12G23   29.92R WCI   8
NEW YORK CITY  CLOUDY    38  21  50 VRB6      29.86S WCI  33
BALTIMORE      CLOUDY    33  14  45 NW14G25   29.99S WCI  23
WASHINGTON DC  CLOUDY    37  12  35 NW16G28   30.04R WCI  28

$$



USA.gov is the U.S. government's official web portal to all federal, state and local government web resources and services.